Current weather by "City, St" or "zip code"  
 

Current Conditions: The Gabreski Airport, NY

Overcast


64.0 F

Last Updated on Oct 24 2020, 12:53 pm EDT
Humidity: 81%
Wind Speed: SW 12.7 mph
Barometer 29.92 in
Dewpoint: 57.9 F
Visibility: 10.00 mi
Precip: --
Heat Index: NA
Wind Chill: NA
Current conditions at:

The Gabreski Airport, NY (KFOK)

Lat: 40.85053 Lon: 72.61927

Local Radar Image active severe weather and emergency alerts image image weather storm and storm spotter reports image weather observation monitoring service image
Local
Radar
Active
Alerts
Storm Reports Obs
Monitoring

Sign-up For Email & Text Message Weather Alert Notification Services



Advertise Here

Observation History for The Gabreski Airport, NY


Time Wind
(mph)
Vis
(mi)
Weather Precip (in) Temperature (F) Relative
Humidity
Wind
Chill
(F)
Heat
Index
(F)
Pressure
Air Dwpt altimeter
(in)
sea level
(mb)
Rmks
12:53 pm EDT SW 12.7 10.00 Overcast -- 64.0 57.9 81% NA NA 29.92 1013.0
11:53 am EDT S 10.4 10.00 Overcast -- 65.0 59.0 81% NA NA 29.93 1013.4
10:53 am EDT SW 8.1 10.00 Overcast -- 64.0 60.1 87% NA NA 29.95 1014.0
9:53 am EDT SW 6.9 10.00 Overcast -- 64.0 60.1 87% NA NA 29.96 1014.5
8:53 am EDT S 5.8 10.00 Overcast -- 62.0 59.0 90% 62 NA 29.97 1014.6
7:53 am EDT N 0.0 10.00 Overcast -- 60.0 57.0 90% NA NA 29.97 1014.9
6:53 am EDT N 0.0 10.00 Overcast -- 60.0 57.0 90% NA NA 29.98 1015.3
5:53 am EDT S 3.5 10.00 Overcast -- 59.0 57.0 93% NA NA 30.00 1015.8
4:53 am EDT SE 4.6 10.00 Mostly Cloudy -- 58.0 55.9 93% 58 NA 30.00 1015.9
3:53 am EDT S 3.5 10.00 Overcast -- 59.0 57.0 93% NA NA 30.01 1016.2
2:53 am EDT N 0.0 10.00 Overcast -- 60.0 57.0 90% NA NA 30.02 1016.6
1:53 am EDT N 0.0 10.00 Overcast -- 59.0 57.0 93% NA NA 30.04 1017.3
12:53 am EDT N 0.0 10.00 Overcast -- 59.0 57.0 93% NA NA 30.06 1017.7
11:53 pm EDT N 0.0 10.00 Overcast -- 60.0 57.0 90% NA NA 30.07 1018.3
10:53 pm EDT N 0.0 10.00 Overcast -- 59.0 55.9 90% NA NA 30.08 1018.7
9:53 pm EDT N 0.0 10.00 Overcast -- 60.0 57.9 93% NA NA 30.09 1018.7
8:53 pm EDT SE 3.5 10.00 Overcast -- 60.0 57.9 93% NA NA 30.10 1019.3
7:53 pm EDT SE 3.5 10.00 Overcast -- 60.0 57.9 93% NA NA 30.12 1019.9
6:53 pm EDT N 0.0 10.00 Overcast -- 60.0 57.9 93% NA NA 30.13 1020.2
5:53 pm EDT E 4.6 10.00 Overcast -- 60.0 57.9 93% 60 NA 30.13 1020.4
4:53 pm EDT E 3.5 10.00 Overcast -- 61.0 59.0 93% NA NA 30.15 1021.0
3:53 pm EDT SE 4.6 10.00 Overcast Trace 61.0 59.0 93% 61 NA 30.16 1021.4
2:53 pm EDT E 5.8 10.00 Overcast Trace 62.0 60.1 93% 62 NA 30.19 1022.2
1:53 pm EDT E 4.6 2.50 Overcast -- 62.0 61.0 96% 62 NA 30.20 1022.5

Regional Weather Observation


Shirley, Brookhaven Airport, NY (KHWV)

Overcast
66.0 F

The Gabreski Airport, NY (KFOK)

Overcast
64.0 F

Bridgeport, Sikorsky Memorial Airport, CT (KBDR)

Overcast
65.0 F

Chester, Chester Airport, CT (KSNC)

Fog/Mist
63.0 F

East Hampton, East Hampton Airport, NY (KHTO)

Overcast
64.0 F

Meriden, Meriden Markham Municipal Airport, CT (KMMK)

Light Rain
64.0 F